Content
SEND FEEDBACK

Daily
Averages
Monthly
Summary
Mexico

PUEBLA - JARDINES DE SAN MANUEL, PUEBLA


Home > North America > Mexico > Puebla
Elevation: 6962 feet     Latitude: 19 00N     Longitude: 098 11W

WEATHER
 
SELECT A DAY
Number of Records: 123,819;   Date Range: 1/1/95 - 10/18/14
 
SHARE

PRINT THIS DATA

[ ← Previous Day ]
WEATHER ALMANAC - AUGUST 14, 2013
[ Next Day → ]
[ °C ]   °F
Weather ElementAverageHighLow
Temperature62.5 °F73.4 °F (2:51 pm)46.4 °F (6:46 am)
Dewpoint47.8 °F55.4 °F (8:21 pm)42 °F (3:40 pm)
Humidity58.9 %94 % (9:53 pm)23 % (3:40 pm)
Barometer30.17 in30.36 in (10:46 am)29.70 in (6:40 pm)
Wind Speed4.9 mph11.5 mph (7:49 am)
Wind Gust16.1 mph (11:49 am)
Weather ElementAverage
Visibility7.9 mi
Wind DirectionSSW (189.1 °)

Weather ElementTotal
Precipitation---
Heating Degree Days5.1 (Base 65)
Growing Degree Days9.9 (Base 50)
Averaged from 25 records on August 14, 2013
WEATHER CONDITIONS BREAKOUT
WIND DIRECTION BREAKOUT
WEATHER BY HOUR - AUGUST 14, 2013
[ °C ]   °F
Local TimeTemperatureDewpointHumidityBarometerVisibilityWind DirectionWind SpeedGust SpeedPrecipitationEventsConditions
3:45 AM56.0 °F47.0 °F63 %29.83 in3.0 miCalm
5:41 AM48.2 °F44.6 °F87 %30.30 in8.0 miNNW (330°)4.6 mphScattered Clouds
6:45 AM50.0 °F46.0 °F81 %29.88 in3.0 miCalm
6:46 AM46.4 °F42.8 °F87 %30.30 in8.0 miNNW (340°)5.8 mphScattered Clouds
7:49 AM50.0 °F42.8 °F76 %30.31 in8.0 miNNW (330°)11.5 mphScattered Clouds
8:43 AM57.2 °F44.6 °F63 %30.33 in8.0 miNNW (330°)10.4 mphScattered Clouds
9:48 AM62.6 °F46.4 °F55 %30.34 in8.0 miNorth (10°)8.1 mphMostly Cloudy
9:50 AM59.0 °F44.0 °F48 %29.96 in12.0 miWNW (300°)2.2 mphScattered Clouds
10:46 AM64.4 °F46.4 °F52 %30.36 in8.0 miNorth (360°)9.2 mphMostly Cloudy
11:49 AM68.0 °F48.2 °F49 %30.33 in8.0 miNE (50°)4.6 mph16.1 mphMostly Cloudy
12:44 PM69.8 °F50.0 °F49 %30.32 in8.0 miNNE (20°)4.6 mphMostly Cloudy
12:50 PM71.0 °F44.0 °F27 %29.91 in12.0 miSSE (150°)2.2 mphPartly Cloudy
1:42 PM71.6 °F46.4 °F41 %30.30 in8.0 miEast (80°)4.6 mphMostly Cloudy
2:51 PM73.4 °F48.2 °F41 %30.27 in8.0 miCalmMostly Cloudy
3:40 PM72.0 °F42.0 °F23 %29.79 in12.0 miSE (140°)2.2 mphHaze
3:48 PM71.6 °F50.0 °F46 %30.26 in8.0 miSE (140°)6.9 mphMostly Cloudy
4:44 PM69.8 °F50.0 °F49 %30.24 in8.0 miSSE (150°)5.8 mphMostly Cloudy
5:45 PM71.6 °F50.0 °F46 %30.23 in8.0 miSouth (180°)4.6 mphMostly Cloudy
6:40 PM69.0 °F42.0 °F27 %29.70 in12.0 miSE (140°)2.2 mphMostly Cloudy
6:41 PM66.2 °F51.8 °F60 %30.23 in8.0 miSSW (200°)9.2 mphMostly Cloudy
8:21 PM59.0 °F55.4 °F88 %30.29 in6.0 miCalmRain-ThunderstormLight Thunderstorms and Rain
8:48 PM59.0 °F55.4 °F88 %30.30 in7.0 miNNW (340°)8.1 mphOvercast
9:45 PM63.0 °F47.0 °F45 %29.73 in3.0 miEast (90°)2.2 mphScattered Clouds
9:53 PM57.2 °F55.4 °F94 %30.33 in7.0 miNNW (330°)4.6 mphOvercast
10:46 PM57.2 °F53.6 °F88 %30.35 in8.0 miNNW (340°)8.1 mphMostly Cloudy
Hourly data recorded from MMPB, located miles away from Puebla - Jardines de San Manuel, Puebla







STORIES FROM OUR PARTNERS